, AK

(GMT )
Tin City

Weather History for PATC - April, 2013

Change the Weather History Date:

Tuesday, April 2, 2013

  Actual Average Record
Temperature  
Mean Temperature 8 °F -  
Max Temperature 13 °F 13 °F 32 °F (2007)
Min Temperature 2 °F 2 °F -11 °F (2001)
Degree Days  
Heating Degree Days 57    
Moisture  
Dew Point 5 °F    
Average Humidity 87    
Maximum Humidity 93    
Minimum Humidity 78    
Precipitation  
Precipitation 0.00 in - - ()
Sea Level Pressure  
Sea Level Pressure 30.18 in    
Wind  
Wind Speed 10 mph (NNE)    
Max Wind Speed 26 mph    
Max Gust Speed -    
Visibility 10 miles    
Events Snow    
Averages and records for this station are not official NWS values.
T = Trace of Precipitation, MM = Missing Value Source: NWS Daily Summary

Daily Weather History Graph

Daily Weather History Graph

Search for Another Location

Airport or City:

Trip Planner

Search our weather history database for the weather conditions in past years. The results will help you decide how hot, cold, wet, or windy it might be!

Date:

Astronomy

Apr. 02, 2013 Rise Set
Actual Time 8:20 AM AKDT 10:11 PM AKDT
Civil Twilight 7:27 AM AKDT 11:04 PM AKDT
Nautical Twilight 6:16 AM AKDT 12:17 AM AKDT
Astronomical Twilight 4:30 AM AKDT 2:10 AM AKDT
Moon 6:15 AM AKDT (4/2) 11:40 AM AKDT (4/2)
Length of Visible Light 15h 37m
Length of Day
13h 50m
Waning Gibbous, 54% of the Moon is Illuminated
Apr 2
Waning Gibbous
Apr 2
Last Quarter
Apr 10
New
Apr 18
First Quarter
Apr 25
Full

Hourly Weather History & Observations

Time (AKDT) Temp. Windchill Dew Point Humidity Pressure Visibility Wind Dir Wind Speed Gust Speed Precip Events Conditions
12:55 AM 8.1 °F - 3.7 °F 83% 30.15 in 10.0 mi Variable 1.2 mph - N/A   Clear
1:55 AM 6.4 °F -0.5 °F 4.8 °F 93% 30.17 in 10.0 mi SW 3.5 mph - N/A   Clear
2:55 AM 9.3 °F 2.8 °F 5.4 °F 84% 30.17 in 10.0 mi West 3.5 mph - N/A   Clear
3:55 AM 11.7 °F - 6.4 °F 80% 30.17 in 10.0 mi West 2.3 mph - N/A   Clear
4:55 AM 10.8 °F 4.5 °F 6.1 °F 81% 30.17 in 10.0 mi NNE 3.5 mph - N/A   Clear
5:55 AM 13.3 °F - 7.7 °F 78% 30.16 in 10.0 mi NNW 2.3 mph - N/A   Clear
6:55 AM 6.3 °F - 4.5 °F 92% 30.17 in 10.0 mi SSW 2.3 mph - N/A   Clear
7:55 AM 8.6 °F - 5.0 °F 85% 30.17 in 10.0 mi SW 2.3 mph - N/A   Clear
8:17 AM 6.8 °F -0.1 °F 5.0 °F 92% 30.17 in 10.0 mi North 3.5 mph - N/A   Clear
8:55 AM 8.6 °F 2.0 °F 5.9 °F 89% 30.17 in 10.0 mi NE 3.5 mph - N/A   Clear
9:55 AM 6.8 °F -8.6 °F 5.0 °F 92% 30.18 in 10.0 mi NE 11.5 mph - N/A   Clear
10:55 AM 8.4 °F -4.9 °F 5.2 °F 87% 30.18 in 10.0 mi NE 9.2 mph - N/A   Clear
11:55 AM 8.6 °F -7.7 °F 5.0 °F 85% 30.19 in 10.0 mi NE 13.8 mph - N/A   Clear
12:17 PM 8.6 °F -8.3 °F 5.0 °F 85% 30.19 in 10.0 mi NE 15.0 mph - N/A   Clear
12:55 PM 9.5 °F -6.6 °F 6.3 °F 87% 30.19 in 10.0 mi NE 13.8 mph - N/A   Clear
1:55 PM 8.4 °F -7.9 °F 4.8 °F 85% 30.20 in 10.0 mi NE 13.8 mph - N/A   Clear
2:55 PM 8.6 °F -8.3 °F 3.2 °F 79% 30.19 in 10.0 mi NE 15.0 mph - N/A   Clear
3:17 PM 6.8 °F -11.3 °F 3.2 °F 85% 30.19 in 10.0 mi NE 16.1 mph - N/A   Clear
3:51 PM 6.8 °F -12.9 °F 3.2 °F 85% 30.19 in 10.0 mi NE 19.6 mph - N/A Snow Light Snow Showers
3:55 PM 6.1 °F -13.8 °F 3.6 °F 89% 30.19 in 10.0 mi NE 19.6 mph - N/A Snow Light Snow Showers
4:11 PM 6.8 °F -12.9 °F 5.0 °F 92% 30.19 in 10.0 mi NNE 19.6 mph - N/A   Clear
4:55 PM 7.3 °F -12.2 °F 4.8 °F 89% 30.19 in 10.0 mi NNE 19.6 mph - N/A   Clear
5:31 PM 8.6 °F -11.0 °F 6.8 °F 92% 30.19 in 10.0 mi NNE 20.7 mph - N/A Snow Light Snow
5:55 PM 8.1 °F -12.6 °F 5.2 °F 88% 30.19 in 10.0 mi NNE 23.0 mph - N/A Snow Light Snow Showers
6:31 PM 8.6 °F -11.9 °F 6.8 °F 92% 30.19 in 10.0 mi NNE 23.0 mph - N/A   Clear
6:55 PM 9.5 °F -11.1 °F 6.1 °F 86% 30.19 in 10.0 mi NNE 24.2 mph - N/A   Clear
7:55 PM 10.4 °F -9.9 °F 6.1 °F 83% 30.18 in 10.0 mi NNE 24.2 mph - N/A   Clear
8:51 PM 8.6 °F -13.1 °F 6.8 °F 92% 30.18 in 10.0 mi NNE 26.5 mph - N/A Snow Light Snow Showers
8:55 PM 8.6 °F -13.1 °F 6.8 °F 92% 30.18 in 10.0 mi NNE 26.5 mph - N/A Snow Light Snow Showers
9:55 PM 7.5 °F -13.7 °F 5.7 °F 92% 30.19 in 10.0 mi NNE 24.2 mph - N/A   Clear
10:55 PM 3.9 °F -19.0 °F -0.6 °F 82% 30.19 in 10.0 mi NE 25.3 mph - N/A   Clear
11:55 PM 2.1 °F -21.8 °F -0.9 °F 87% 30.20 in 10.0 mi NNE 26.5 mph - N/A   Clear